Weather History for KHWY - September, 2013

Change the Weather History Date:

Wednesday, September 25, 2013

  Actual Average (KHEF) Record (KHEF)
Temperature  
Mean Temperature 58 °F -  
Max Temperature 75 °F 72 °F 93 °F (2010)
Min Temperature 42 °F 50 °F 41 °F (2012)
Degree Days  
Heating Degree Days 6    
Growing Degree Days 8 (Base 50)    
Moisture  
Dew Point 52 °F    
Average Humidity 86    
Maximum Humidity 100    
Minimum Humidity 46    
Precipitation  
Precipitation 0.00 in - - ()
Sea Level Pressure  
Sea Level Pressure 29.94 in    
Wind  
Wind Speed 1 mph (NE)    
Max Wind Speed 6 mph    
Max Gust Speed -    
Visibility 7 miles    
Events Fog    
Averages and records for this station are not official NWS values.
T = Trace of Precipitation, MM = Missing Value Source: NWS Daily Summary

Daily Weather History Graph

Daily Weather History Graph

Search for Another Location

Airport or City:

Trip Planner

Search our weather history database for the weather conditions in past years. The results will help you decide how hot, cold, wet, or windy it might be!

Date:

Astronomy

Sep. 25, 2013 Rise Set
Actual Time 7:01 AM EDT 7:02 PM EDT
Civil Twilight 6:34 AM EDT 7:29 PM EDT
Nautical Twilight 6:04 AM EDT 7:59 PM EDT
Astronomical Twilight 5:32 AM EDT 8:31 PM EDT
Moon 11:11 PM EDT (9/25) 1:01 PM EDT (9/25)
Length of Visible Light 12h 54m
Length of Day
12h 01m
Waning Gibbous, 64% of the Moon is Illuminated
Sep 25
Waning Gibbous
Sep 26
Last Quarter
Oct 4
New
Oct 11
First Quarter
Oct 18
Full

Hourly Weather History & Observations

Time (EDT) Temp. Dew Point Humidity Pressure Visibility Wind Dir Wind Speed Gust Speed Precip Events Conditions
12:15 AM 45.5 °F 45.5 °F 100% 29.98 in 0.5 mi Calm Calm - N/A Fog Fog
12:35 AM 45.7 °F 45.7 °F 100% 29.97 in 0.2 mi Calm Calm - N/A Fog Fog
12:55 AM 44.8 °F 44.8 °F 100% 29.98 in 0.2 mi Calm Calm - N/A Fog Fog
1:15 AM 46.0 °F 46.0 °F 100% 29.97 in 0.2 mi Calm Calm - N/A Fog Fog
1:35 AM 45.1 °F 45.1 °F 100% 29.98 in 0.2 mi Calm Calm - N/A Fog Fog
1:55 AM 46.9 °F 46.9 °F 100% 29.97 in 0.5 mi Calm Calm - N/A Fog Fog
2:15 AM 45.7 °F 45.7 °F 100% 29.97 in 1.5 mi Calm Calm - N/A   Mist
2:35 AM 45.7 °F 45.7 °F 100% 29.97 in 0.8 mi Calm Calm - N/A   Mist
2:55 AM 44.8 °F 44.8 °F 100% 29.96 in 0.5 mi Calm Calm - N/A Fog Fog
3:35 AM 44.4 °F 44.4 °F 100% 29.95 in 0.5 mi Calm Calm - N/A Fog Fog
3:55 AM 44.6 °F 44.6 °F 100% 29.96 in 0.5 mi Calm Calm - N/A Fog Fog
4:15 AM 44.8 °F 44.8 °F 100% 29.96 in 0.5 mi Calm Calm - N/A Fog Fog
4:35 AM 44.1 °F 44.1 °F 100% 29.95 in 0.2 mi Calm Calm - N/A Fog Fog
4:55 AM 43.5 °F 43.5 °F 100% 29.95 in 0.5 mi Calm Calm - N/A Fog Fog
5:35 AM 44.4 °F 44.4 °F 100% 29.95 in 1.8 mi Calm Calm - N/A   Mist
5:55 AM 43.3 °F 43.3 °F 100% 29.95 in 0.2 mi Calm Calm - N/A Fog Fog
6:15 AM 43.2 °F 43.2 °F 100% 29.95 in 1.0 mi Calm Calm - N/A   Mist
6:35 AM 43.2 °F 43.2 °F 100% 29.95 in 0.2 mi Calm Calm - N/A Fog Fog
6:55 AM 42.6 °F 42.6 °F 100% 29.96 in 0.2 mi Calm Calm - N/A Fog Fog
7:15 AM 42.6 °F 42.6 °F 100% 29.95 in 0.2 mi Calm Calm - N/A Fog Fog
7:35 AM 43.7 °F 43.7 °F 100% 29.96 in 0.2 mi Calm Calm - N/A Fog Fog
7:55 AM 45.1 °F 45.1 °F 100% 29.96 in 1.5 mi Calm Calm - N/A   Mist
8:15 AM 46.4 °F 46.4 °F 100% 29.96 in 3.0 mi Calm Calm - N/A   Clear
8:35 AM 47.3 °F 47.3 °F 100% 29.97 in 5.0 mi Calm Calm - N/A   Clear
8:55 AM 51.1 °F 51.1 °F 100% 29.97 in 10.0 mi Calm Calm - N/A   Clear
9:15 AM 54.9 °F 54.9 °F 100% 29.99 in 7.0 mi Calm Calm - N/A   Clear
9:35 AM 57.2 °F 57.2 °F 100% 29.99 in 7.0 mi Calm Calm - N/A   Clear
9:55 AM 59.4 °F 59.4 °F 100% 29.99 in 10.0 mi Calm Calm - N/A   Clear
10:15 AM 63.5 °F 57.0 °F 79% 29.99 in 10.0 mi NNE 3.5 mph - N/A   Clear
10:35 AM 64.8 °F 56.7 °F 75% 29.99 in 10.0 mi NE 5.8 mph - N/A   Clear
10:55 AM 66.2 °F 56.1 °F 70% 29.99 in 10.0 mi ENE 5.8 mph - N/A   Clear
11:15 AM 67.3 °F 55.9 °F 67% 29.98 in 10.0 mi Calm Calm - N/A   Clear
11:35 AM 68.5 °F 55.6 °F 63% 29.98 in 10.0 mi East 3.5 mph - N/A   Clear
11:55 AM 69.3 °F 55.8 °F 62% 29.97 in 10.0 mi ENE 4.6 mph - N/A   Clear
12:15 PM 69.8 °F 55.2 °F 60% 29.97 in 10.0 mi NE 3.5 mph - N/A   Clear
12:35 PM 71.4 °F 56.3 °F 59% 29.97 in 10.0 mi NE 4.6 mph - N/A   Clear
12:55 PM 71.6 °F 56.5 °F 59% 29.95 in 10.0 mi NE 5.8 mph - N/A   Clear
1:15 PM 72.3 °F 54.7 °F 54% 29.95 in 10.0 mi NE 4.6 mph - N/A   Clear
1:35 PM 72.3 °F 53.4 °F 51% 29.94 in 10.0 mi Calm Calm - N/A   Clear
2:15 PM 73.2 °F 53.6 °F 50% 29.93 in 10.0 mi Calm Calm - N/A   Clear
2:35 PM 74.7 °F 52.5 °F 46% 29.92 in 10.0 mi Calm Calm - N/A   Clear
2:55 PM 75.0 °F 54.0 °F 48% 29.92 in 7.0 mi NNE 3.5 mph - N/A   Clear
3:15 PM 73.6 °F 53.6 °F 50% 29.92 in 10.0 mi Calm Calm - N/A   Clear
3:35 PM 73.4 °F 53.6 °F 50% 29.91 in 10.0 mi North 3.5 mph - N/A   Clear
3:55 PM 74.7 °F 54.1 °F 49% 29.91 in 10.0 mi West 3.5 mph - N/A   Clear
4:15 PM 74.5 °F 54.9 °F 50% 29.91 in 10.0 mi Calm Calm - N/A   Clear
4:55 PM 75.4 °F 54.1 °F 48% 29.90 in 10.0 mi Calm Calm - N/A   Clear
5:15 PM 73.4 °F 52.0 °F 47% 29.90 in 10.0 mi Calm Calm - N/A   Clear
5:35 PM 69.6 °F 59.5 °F 70% 29.90 in 10.0 mi Calm Calm - N/A   Clear
5:55 PM 67.3 °F 61.0 °F 80% 29.90 in 10.0 mi Calm Calm - N/A   Clear
6:15 PM 66.2 °F 61.2 °F 84% 29.90 in 10.0 mi Calm Calm - N/A   Clear
6:35 PM 63.7 °F 60.6 °F 90% 29.90 in 10.0 mi Calm Calm - N/A   Clear
6:55 PM 62.8 °F 58.5 °F 86% 29.90 in 10.0 mi Calm Calm - N/A   Clear
7:15 PM 58.5 °F 57.2 °F 96% 29.90 in 10.0 mi Calm Calm - N/A   Clear
7:35 PM 57.7 °F 57.4 °F 99% 29.90 in 10.0 mi Calm Calm - N/A   Clear
7:55 PM 58.1 °F 57.7 °F 99% 29.90 in 10.0 mi Calm Calm - N/A   Clear
8:15 PM 55.8 °F 55.6 °F 99% 29.90 in 10.0 mi Calm Calm - N/A   Clear
8:35 PM 55.9 °F 55.9 °F 100% 29.91 in 10.0 mi Calm Calm - N/A   Clear
8:55 PM 55.9 °F 55.9 °F 100% 29.91 in 10.0 mi Calm Calm - N/A   Clear
9:15 PM 55.9 °F 55.9 °F 100% 29.91 in 10.0 mi Calm Calm - N/A   Clear
9:35 PM 54.9 °F 54.9 °F 100% 29.92 in 10.0 mi Calm Calm - N/A   Clear
9:55 PM 55.8 °F 55.8 °F 100% 29.92 in 10.0 mi Calm Calm - N/A   Clear
10:15 PM 54.5 °F 54.5 °F 100% 29.93 in 10.0 mi Calm Calm - N/A   Clear
10:35 PM 54.1 °F 54.1 °F 100% 29.93 in 10.0 mi Calm Calm - N/A   Clear
10:55 PM 53.6 °F 53.6 °F 100% 29.93 in 10.0 mi Calm Calm - N/A   Clear
11:15 PM 54.0 °F 54.0 °F 100% 29.93 in 7.0 mi Calm Calm - N/A   Clear
11:35 PM 54.7 °F 54.7 °F 100% 29.93 in 10.0 mi Calm Calm - N/A   Clear
11:55 PM 55.2 °F 55.2 °F 100% 29.93 in 10.0 mi Calm Calm - N/A   Clear